User: anonymous   Login
Location: Caltech
(34.1382°N, 118.1253°W)
Time: 18:41:57
(UTC-08:00)
Language:

SEDSat Delta rocket - Orbit

View from above orbital plane
View from above orbital plane
View from above satellite
View from above satellite

Ground track
Ground track

The orbit data is extracted from the following two-line orbital elements,

1 25510U 98061C   16040.19168654  .00000514  00000-0  80912-4 0  9992
2 25510  31.4347  93.0490 0329058  21.0398  16.1916 14.36942402906208
Epoch (UTC): 09 February 2016 04:36:01
Eccentricity: 0.0329058
inclination: 31.4347°
perigee height: 533 km
apogee height: 1004 km
right ascension of ascending node: 93.0490°
argument of perigee: 21.0398°
revolutions per day: 14.36942402
mean anomaly at epoch: 16.1916°
orbit number at epoch: 90620

The dashed part of the orbit path shows where the satellite is in the earth's shadow,  

DLR